STARLINK-34913

Last updated on Tue Sep 16 2025 00:02:07 GMT+0000 (Coordinated Universal Time)

1 65369U 25190U 25258.04964637 .05127469 00000+0 37713-1 0 9992 2 65369 53.1583 267.5801 0027206 234.4398 125.4083 15.68134330 2813
UTC large
Height (km)
Speed (km/s)
/
Latitude / Longitude
Inclination (degrees)
Orbital Period (minutes)
Azimuth
Elevation
Range (km)
Doppler Factor

Next 0 passes for location: London (51.5072 / 0.1276)

Sorry there are no passes over London.